Погода в Масловке

Россия / Республика Татарстан     55°26′06″N   50°00′28″E
темп.,
°C
ветер,
м/с
пор.,
м/с
влажн.,
%
обл.,
%
осадки,
мм/ч
давл.,
гПа
погр.,
м
31 июля, сб
сб3100:00+20ю3480100 0.1 100558
03:00+19ююз389256 1.4 1004217
06:00+20ю368889 0.1 1004314
09:00+22юз687822 0.1 1004631
12:00+24юз796884 0.3 10041039
15:00+26зюз6105876 1.0 10041457
18:00+25з595911 0.0 1005572
21:00+23зюз5965100 0.0 1007234
1 августа, вс
вс100:00+19зюз47726 0.0 1008117
03:00+18юз48750 0.0 1009146
06:00+20зюз496914 0.0 1010261
09:00+24з464924 0.0 1011823
12:00+26з5742100 0.0 10111881
15:00+27з573912 0.0 10111856
18:00+25зсз3549100 0.0 1012132
21:00+21сз115897 0.0 101211
2 августа, пн
пн200:00+20юз1162100 0.0 101311
03:00+19ююз22675 0.0 101320
06:00+20юз356682 0.0 1014126
09:00+25юз455013 0.0 1014438
12:00+27юз454490 0.0 1013516
15:00+28юз464087 0.0 1012574
18:00+27ю23475 0.0 101147
21:00+23ююв335221 0.0 101117
3 августа, вт
вт300:00+21ююв22575 0.0 101113
03:00+21ю225617 0.0 101019
06:00+23ююв276124 0.0 1010234
09:00+26юз385193 0.0 1009332
12:00+30ююз47385 0.0 1008468
15:00+32зюз59315 0.0 10071148
18:00+25вюв4105233 0.2 1006138
21:00+21зсз127594 1.6 100917
4 августа, ср
ср400:00+21юз346976 0.0 100942
03:00+20ссз337676 0.0 100827
06:00+22ссв1174100 0.0 100969
09:00+24з5668100 0.0 1010626
12:00+27зсз4351100 0.0 1009939
15:00+25зсз456099 0.1 1010858
18:00+23зсз367398 2.1 1010226
21:00+19ссз358144 3.1 101265